Location: *
(60.4110°N, 32.1820°W)
Time: 16:16:37
(UTC+00:00)

Daily predictions for brighter satellites

Satellite Brightness Start Highest point End
(mag) Time Altitude Azimuth Time Altitude Azimuth Time Altitude Azimuth
NOSS 0 Rocket 4.1 20:55:09 10° NW 21:01:22 81° SW 21:07:36 10° SE
Spot 2 Rocket 4.5 21:01:25 10° ESE 21:05:45 30° NE 21:10:07 10° N
USA 234 3.5 20:59:19 10° E 21:05:50 62° SSE 21:12:20 10° WSW
Terra 3.9 21:04:00 10° ENE 21:06:16 13° NE 21:08:32 10° N
COSMO-SKYMED 1 3.0 21:02:25 10° NNE 21:06:46 70° WNW 21:11:06 10° SSW
CZ-2C R/B 4.4 21:03:06 10° NNE 21:07:08 30° E 21:11:04 10° SSE
RESURS DK-1 3.5 21:03:29 10° NW 21:07:17 33° NNE 21:11:04 10° E
Cosmos 2227 Rocket 3.9 21:07:30 10° ESE 21:09:15 11° E 21:11:01 10° ENE
ADEOS Rocket 4.1 21:03:52 10° NNE 21:10:03 31° E 21:16:36 10° SSE
Cosmos 1125 Rocket 4.2 21:04:53 10° SW 21:10:09 61° NW 21:15:27 10° NNE
Meteor 2-9 Rocket 4.3 21:06:21 10° S 21:12:00 61° E 21:17:31 10° NNE
Cosmos 1626 4.3 21:11:55 10° NNE 21:13:34 12° NE 21:15:13 10° ENE
SJ 16-02 3.9 21:10:43 10° W 21:14:11 22° NNW 21:17:39 10° NNE
Cosmos 1666 4.4 21:12:03 10° SW 21:15:35 38° WNW 21:19:07 10° N
Cosmos 1833 4.3 21:11:46 10° SSW 21:17:22 60° ESE 21:22:57 10° NE
Cosmos 2151 Rocket 3.5 21:13:09 10° S 21:17:34 78° ESE 21:21:59 10° NNE
SAR-Lupe-2 4.1 21:15:06 10° NNE 21:18:31 38° E 21:21:53 10° S
ATLAS 2AS CENTAUR R/B 3.8 21:11:38 10° WNW 21:19:05 48° SW 21:26:00 10° SSE
Cosmos 405 Rocket 4.2 21:16:47 10° SE 21:19:12 17° E 21:21:38 10° NE
Cosmos 2297 Rocket 3.7 21:17:16 10° SE 21:20:06 14° E 21:22:57 10° ENE
Cosmos 1300 Rocket 3.5 21:15:56 10° S 21:20:16 83° E 21:24:37 10° NNE
EO 1 Delta rocket 4.3 21:14:03 10° SSE 21:20:27 81° ENE 21:25:36 10° N
ARGOS 3.2 21:15:29 10° SE 21:20:48 65° ENE 21:26:11 10° NNW
Cosmos 1544 3.3 21:18:15 10° S 21:21:41 44° E 21:25:10 10° NNE
Cosmos 676 Rocket 4.2 21:17:26 10° NNW 21:22:44 63° NE 21:27:57 10° SE
H-2A R/B 2.0 21:18:45 10° SSE 21:23:41 68° ENE 21:28:44 10° NNW
Cosmos 1461 3.9 21:20:55 10° S 21:24:04 23° SE 21:27:13 10° ENE
Meteor 1-24 Rocket 4.3 21:19:28 10° N 21:24:51 43° ENE 21:30:24 10° SE
ASTEX 1 3.5 21:22:04 10° NNE 21:26:55 57° E 21:31:44 10° S
CZ-4 R/B 4.3 21:24:35 10° SW 21:27:26 19° W 21:30:20 10° NW
Cosmos 2341 Rocket 4.0 21:21:36 10° NNW 21:27:55 73° ENE 21:34:09 10° SSE
FREGAT/IRIS 3.4 21:26:25 10° S 21:29:10 49° W 21:31:56 10° NNW
Cosmos 2333 Rocket 3.4 21:23:54 10° NW 21:29:15 43° WSW 21:34:36 10° S
Cosmos 1943 4.2 21:25:35 10° NW 21:30:52 36° NNE 21:36:07 10° E
NOSS 2-1 (E) 3.6 21:28:34 10° WSW 21:32:22 79° NNW 21:37:15 10° ENE
ERBS 3.1 21:31:39 10° W 21:34:53 41° SSW 21:37:35 13° SE
Cosmos 389 Rocket 2.3 21:32:52 10° NNW 21:36:20 85° ENE 21:39:46 10° SSE
Cosmos 1441 Rocket 3.2 21:33:52 10° S 21:37:36 56° E 21:41:19 10° NNE
Meteor 2-5 Rocket 3.9 21:33:44 10° NNW 21:39:28 63° ENE 21:45:17 10° SSE
Cosmos 2181 Rocket 4.5 21:34:02 10° SSE 21:39:46 40° E 21:45:38 10° NNE
Cosmos 1190 Rocket 4.2 21:34:32 10° NW 21:39:54 80° WSW 21:45:11 10° SSE
Cosmos 1833 Rocket 4.3 21:35:57 10° W 21:41:00 32° NNW 21:46:05 10° NE
Cosmos 2237 Rocket 2.5 21:36:07 10° NW 21:41:49 68° WSW 21:47:28 10° SSE
Cosmos 1455 Rocket 4.1 21:38:36 10° SE 21:42:20 27° E 21:46:07 10° NNE
In-Cosmos 22 4.1 21:38:36 10° NNW 21:43:57 85° ENE 21:49:22 10° SSE
SL-24 R/B 4.4 21:40:35 10° SSE 21:45:07 64° ENE 21:50:13 10° NNW
MetOp-A 4.2 21:40:16 10° SSE 21:45:35 69° ENE 21:50:57 10° NNW
COSMOS 2487 4.0 21:42:52 10° WSW 21:46:11 39° NW 21:49:32 10° NNE
Cosmos 1674 3.1 21:42:49 10° N 21:46:26 43° ENE 21:49:23 14° SE
SL-08 RB Rocket 3.8 21:42:36 10° SSE 21:47:16 73° ENE 21:51:57 10° NNW
Cosmos 2218 Rocket 4.1 21:42:53 10° NNW 21:49:18 67° ENE 21:55:38 10° SSE
Cosmos 1980 4.2 21:45:06 10° NW 21:50:40 59° WSW 21:56:12 10° SSE
CZ-4C R/B 2.7 21:45:04 10° W 21:50:54 73° NNW 21:57:58 10° ENE
Cosmos 1707 3.4 21:47:58 10° NNW 21:51:50 56° W 21:55:40 10° S
Meteor 1-4 Rocket 2.5 21:48:44 10° NNW 21:52:22 87° WSW 21:55:56 10° SSE
Cosmos 1626 Rocket 4.0 21:49:38 10° N 21:53:50 44° ENE 21:57:04 16° SE
Cosmos 1850 Rocket 4.3 21:49:33 10° NNW 21:54:40 53° NE 21:58:36 17° ESE
Cosmos 2366 rocket 4.1 21:49:09 10° NNW 21:55:31 69° ENE 22:01:52 10° SSE
SJ-6B 3.7 21:52:05 10° S 21:56:08 54° W 22:00:09 10° NNW
USA 186 3.3 21:55:00 10° S 21:58:14 41° W 22:01:32 10° NNW
Resurs 1-3 3.6 21:55:08 10° SSE 21:59:32 87° WSW 22:03:59 10° NNW
Cosmos 864 Rocket 4.5 21:54:45 10° NNW 22:00:58 71° ENE 22:07:12 10° SSE
Resurs 01 Rocket 1.6 21:57:24 10° SSE 22:01:51 82° ENE 22:06:20 10° NNW
GP-B 4.4 21:57:50 10° N 22:02:05 45° W 22:06:19 10° SSW
KORONAS-FOTON 3.9 21:58:36 10° N 22:02:22 54° ENE 22:05:01 18° SE
Okean 1 Rocket 3.1 21:58:03 10° SSW 22:02:24 87° W 22:06:50 10° NNE
SPOT 5 4.0 22:00:17 17° ESE 22:03:17 31° NE 22:07:42 10° N
SL-14 R/B 4.2 22:00:08 10° N 22:03:48 32° ENE 22:05:49 20° ESE
Cosmos 1603 4.2 22:00:19 10° NW 22:05:50 50° NE 22:09:58 18° ESE
CZ-2C R/B 3.2 22:01:36 10° SSE 22:06:54 86° ENE 22:12:32 10° NNW
SL-8 Rocket 4.0 22:00:42 10° NNW 22:06:58 90° W 22:13:10 10° S
SL-16 R/B 2.2 22:05:26 10° NW 22:11:10 86° SW 22:15:39 17° SE
Landsat 7 4.5 22:08:34 19° ESE 22:11:28 39° ENE 22:15:55 10° N
Cosmos 407 Rocket 4.4 22:07:59 10° NW 22:12:55 47° WSW 22:17:49 10° S
Cosmos 1602 Rocket 3.7 22:09:26 10° N 22:13:45 53° ENE 22:16:30 21° SE
Cosmos 2056 Rocket 4.1 22:09:50 10° S 22:14:47 37° ESE 22:19:43 10° NE
Cosmos 2219 Rocket 4.3 22:15:06 10° NW 22:19:24 23° WSW 22:23:42 10° SSW
Cosmos 1959 Rocket 4.5 22:15:31 10° NNW 22:21:40 87° W 22:27:50 10° S
Cosmos 1766 3.8 22:20:18 23° SE 22:22:05 36° E 22:25:43 10° NNE
SPOT 1/Viking Rocket 3.9 22:19:29 21° SE 22:22:40 49° ENE 22:27:39 10° NNW
Cosmos 1741 Rocket 4.1 22:17:43 10° NNW 22:23:05 72° NE 22:26:32 22° SE
Cosmos 1624 Rocket 4.3 22:22:06 10° S 22:26:59 43° ESE 22:31:55 10° NE
IGS 5A 4.0 22:28:02 27° ESE 22:29:50 42° ENE 22:33:48 10° N
Cosmos 1733 4.1 22:32:22 28° E 22:32:37 28° E 22:35:57 10° NNE
Cosmos 1954 Rocket 4.5 22:28:41 10° NW 22:33:51 57° WSW 22:38:03 15° S
CZ-2C R/B 3.4 22:29:50 10° NNE 22:34:53 35° E 22:37:19 24° SE
NOSS 2-1 (C) 4.0 22:32:34 10° W 22:36:29 60° N 22:41:01 13° ENE
NOSS 2-1 (D) 4.0 22:35:46 10° W 22:39:41 60° N 22:44:06 13° ENE
Cosmos 1437 Rocket 3.2 22:36:28 10° NNW 22:40:15 58° W 22:42:54 18° S
NOSS 3-3 (A) 4.0 22:35:20 10° SW 22:41:36 79° SSE 22:48:47 10° ENE
Cosmos 2082 Rocket 4.0 22:36:37 10° WNW 22:41:37 30° N 22:46:37 10° NE
NOSS 3-3 (C) 4.0 22:35:26 10° SW 22:41:42 79° SSE 22:48:53 10° ENE
Terra 2.5 22:40:59 27° ESE 22:42:57 40° ENE 22:47:23 10° N
ERS-1 Rocket 3.1 22:40:30 27° SE 22:43:09 62° ENE 22:48:08 10° NNW
Spot 2 Rocket 3.6 22:40:32 17° SSE 22:44:24 76° WSW 22:49:29 10° NNW
CZ-2C R/B 4.4 22:40:06 10° NNE 22:44:32 56° WNW 22:48:54 10° SW
Meteor 1-15 Rocket 4.3 22:38:50 10° SSW 22:44:39 87° WNW 22:50:37 10° NNE
RESURS DK-1 2.3 22:41:35 10° NW 22:45:46 84° SW 22:47:26 35° SE
USA 234 3.3 22:45:01 23° ESE 22:49:21 67° S 22:55:55 10° W
Cosmos 1626 2.2 22:46:00 10° N 22:49:42 58° ENE 22:50:37 43° SE
Meteor 1-21 Rocket 4.5 22:44:52 10° NNW 22:50:41 60° ENE 22:53:41 29° SE
Cosmos 2219 3.2 22:45:03 10° SSW 22:50:42 62° ESE 22:56:24 10° NE
Timation 2 Rocket 4.1 22:44:19 10° SW 22:50:49 78° NW 22:57:04 10° NE
Cosmos 2227 Rocket 2.4 22:46:36 10° S 22:51:57 45° ESE 22:57:19 10° NE
SJ 16-02 4.2 22:52:21 10° NW 22:54:26 13° N 22:56:33 10° NNE
Cosmos 405 Rocket 2.7 22:51:02 10° SSW 22:54:44 77° WNW 22:58:30 10° NNE
ADEOS Rocket 3.4 22:49:16 10° NNE 22:56:19 90° SSW 23:03:57 10° SSW
Cosmos 1371 Rocket 3.9 22:52:09 10° SSW 22:57:28 73° ESE 23:02:50 10° NE
MetOp-B 4.4 22:56:28 19° S 23:00:23 66° WSW 23:05:45 10° NNW
Cosmos 1470 3.8 23:01:26 29° ENE 23:01:26 29° ENE 23:04:30 10° NNE
Cosmos 1461 2.6 22:58:44 10° SW 23:02:43 84° SSE 23:06:43 10° ENE
Cosmos 2297 Rocket 2.3 22:57:29 10° SSW 23:02:58 53° ESE 23:08:28 10° NE
H-2A R/B 3.8 22:59:17 10° SSW 23:03:35 29° W 23:07:59 10° NNW
Cosmos 1953 3.8 23:05:12 23° ENE 23:05:12 23° ENE 23:07:43 10° NNE
Meteor 1-24 Rocket 4.4 23:02:40 10° NNW 23:08:10 54° W 23:13:01 14° S
Cosmos 1452 Rocket 3.9 23:08:38 37° SE 23:09:23 39° ESE 23:14:14 10° NE
ERBS 4.2 23:08:14 10° W 23:10:36 19° SW 23:10:36 19° SW
Cosmos 1934 Rocket 4.0 23:05:14 10° NNW 23:11:19 66° ENE 23:14:06 34° SE
Cosmos 1943 3.2 23:09:57 10° NW 23:15:42 80° NE 23:18:00 38° SE
Cosmos 1805 3.3 23:15:21 30° SSW 23:17:14 80° WNW 23:21:10 10° NNE
Cosmos 968 Rocket 4.4 23:13:31 10° NNW 23:18:25 38° NE 23:20:33 27° E
Cosmos 1544 Rocket 3.9 23:14:57 12° SSW 23:19:02 69° WNW 23:23:31 10° NNE
Meteor 2-12 Rocket 4.4 23:13:09 10° NNW 23:19:16 86° WSW 23:22:31 30° S
Cosmos 1455 Rocket 3.6 23:15:32 10° SSW 23:19:55 59° WNW 23:24:22 10° N
Cosmos 1953 Rocket 3.6 23:16:17 10° N 23:20:47 66° ENE 23:21:45 50° SE
Cosmos 2263 Rocket 4.2 23:23:14 13° ENE 23:23:14 13° ENE 23:24:18 10° ENE
MTI 4.4 23:18:21 10° NNE 23:20:41 44° NE 23:20:41 44° NE
Cosmos 1271 Rocket 3.0 23:18:08 10° N 23:21:48 47° ENE 23:21:53 47° ENE
Cosmos 1674 4.5 23:18:38 10° NNW 23:21:52 28° W 23:24:14 15° SW
NOSS 2-1 (E) 4.1 23:19:07 10° WNW 23:23:17 62° N 23:26:33 23° E
CARTOSAT-1 3.5 23:23:05 51° SSE 23:24:09 86° ENE 23:28:31 10° NNW
Cosmos 2237 Rocket 4.4 23:21:03 10° WNW 23:24:59 19° W 23:28:54 10° SW
Cosmos 1833 Rocket 4.3 23:21:33 10° NW 23:26:27 29° N 23:31:21 10° ENE
Cosmos 2285 Rocket 4.3 23:21:35 10° NNW 23:27:57 58° NE 23:30:43 34° ESE
Helios 1A 4.3 23:27:31 26° ENE 23:28:09 27° NE 23:31:45 10° N
Cosmos 1241 Rocket 4.4 23:24:56 10° WNW 23:31:21 85° NE 23:33:56 38° ESE
EO 1 Del DPAF 4.2 23:28:54 10° NNE 23:31:32 34° ENE 23:31:32 34° ENE
ARGOS Delta rocket 4.2 23:35:42 46° ESE 23:37:03 61° ENE 23:42:05 10° N
Cosmos 1825 Rocket 3.6 23:34:12 10° NNW 23:38:34 72° W 23:39:29 52° SSW
Cosmos 2228 3.8 23:39:07 38° ENE 23:39:07 38° ENE 23:42:44 10° NNE
Nadezhda 3 Rocket 3.9 23:35:46 32° S 23:38:50 76° E 23:45:05 10° NNE
Resurs 01 Rocket 3.9 23:35:32 10° SW 23:38:55 21° W 23:42:19 10° NW
CZ-4C R/B 2.8 23:33:47 10° WNW 23:40:03 73° NNE 23:44:46 24° E
SL-14 R/B 4.2 23:36:17 10° NNW 23:40:07 43° W 23:41:16 34° SW
SPOT 5 3.0 23:39:32 43° S 23:41:02 71° WSW 23:46:06 10° NNW
Cosmos 1703 3.7 23:39:03 10° N 23:42:50 50° ENE 23:42:50 50° ENE
Geosat 4.1 23:41:53 45° ESE 23:43:18 67° NE 23:48:19 10° NW
MOS 1 Rocket 3.6 23:39:22 10° NNE 23:44:36 53° E 23:45:08 51° ESE
SL-24 R/B 4.1 23:41:35 10° NNE 23:44:59 55° ENE 23:44:59 55° ENE
Cosmos 1758 Rocket 3.9 23:42:57 10° NNW 23:47:14 58° W 23:48:10 46° SW
Cosmos 1605 Rocket 4.0 23:40:47 10° NNW 23:47:15 77° ENE 23:49:28 44° SSE
Cosmos 2058 Rocket 4.1 23:49:53 32° ENE 23:49:53 32° ENE 23:53:08 10° NNE
Landsat 7 4.5 23:47:28 33° SSW 23:49:12 49° W 23:53:52 10° NNW
Cosmos 1242 Rocket 3.4 23:46:27 10° N 23:49:16 40° NE 23:49:16 40° NE
Cosmos 1603 3.9 23:44:37 10° NW 23:50:11 60° WSW 23:51:50 43° S
Cosmos 1821 Rocket 4.4 23:44:14 10° NNW 23:50:20 59° W 23:53:33 28° SSW
DMSP B5D2-2 4.5 23:45:34 10° NNE 23:50:50 63° WNW 23:55:31 13° SW
Cosmos 2058 4.5 23:48:39 10° N 23:52:01 24° ENE 23:52:06 24° ENE
SL-16 R/B 3.8 23:50:05 10° NW 23:54:39 26° WSW 23:57:31 17° SW
